Theta_e
305 306 307 307 307 306 305 305 305 305 306 305 303 303 302 301 300 300 300 299 299 299 298 297 296 296 295 293 292 291 292 292 293 292 293 295 296 299 295 296 296 297 294
305 304 305 305 306 306 305 304 304 303 304 304 303 302 301 301 300 299 299 298 299 298 297 296 295 294 293 292 291 291 291 291 292 292 293 293 295 296 294 294 295 292 292
306 305 304 304 305 305 304 303 302 302 302 302 302 301 300 299 299 298 298 298 298 297 296 295 294 293 292 291 290 290 290 291 291 291 291 292 293 291 294 292 291 291 290
306 305 304 303 304 304 304 303 302 301 301 301 301 301 299 298 298 298 297 297 296 296 295 294 293 292 292 291 290 289 290 290 290 290 290 290 290 291 291 291 290 289 289
307 305 304 303 303 304 303 302 301 301 301 300 300 300 298 298 297 297 296 296 295 294 293 293 292 290 291 290 289 289 289 290 290 289 289 288 289 289 290 290 289 288 288
307 305 304 303 302 303 302 302 301 300 300 299 299 298 298 297 296 296 296 295 294 293 292 292 291 290 291 289 288 289 289 288 287 287 288 288 288 288 288 288 287 288 287
306 305 303 303 301 300 301 301 301 300 299 298 297 297 296 296 296 295 295 294 293 292 291 291 289 289 289 288 288 288 287 286 286 284 284 285 286 286 286 287 287 286 286
307 305 304 303 302 300 300 300 300 299 299 297 297 296 295 295 295 294 294 293 293 292 291 290 289 288 288 287 287 287 286 285 283 282 283 284 284 285 285 286 286 286 285
307 305 304 303 302 301 300 300 300 299 298 297 296 295 295 294 294 294 293 293 292 291 290 289 289 288 286 286 286 286 285 284 282 281 282 283 283 284 285 285 285 285 286
307 306 304 303 302 301 300 300 300 299 298 297 296 295 294 294 293 293 293 292 291 290 290 289 288 286 285 285 285 285 284 282 281 281 281 282 283 283 284 284 284 284 283
307 305 303 303 302 301 300 299 299 298 297 296 295 294 294 293 293 292 292 291 290 290 289 288 287 286 284 285 286 284 282 281 280 280 281 282 283 283 285 283 283 283 283
307 304 303 302 302 301 299 298 298 297 296 295 295 294 293 292 292 291 291 290 290 289 289 288 287 286 284 285 285 283 281 280 279 280 280 281 282 281 281 282 283 283 281
307 304 303 302 302 300 298 297 296 296 295 295 294 293 292 292 291 291 290 290 289 288 288 287 287 285 284 285 284 282 280 279 279 279 280 280 279 279 280 282 282 281 280
307 305 304 302 301 299 298 297 295 295 295 294 293 293 292 291 291 290 289 289 288 288 287 287 286 284 284 284 282 281 279 278 278 278 279 278 277 279 280 280 281 280 280
308 305 303 301 300 299 297 296 295 295 294 293 292 292 291 291 290 289 288 288 287 287 286 287 284 284 283 282 281 280 279 277 277 277 277 277 278 279 279 280 279 278 278
308 306 303 301 300 299 296 295 294 293 293 292 292 291 290 290 289 288 288 287 286 286 286 285 283 283 282 282 281 280 278 277 276 276 276 275 277 277 277 277 278 278 279
309 306 303 301 300 298 296 295 294 292 292 291 291 290 290 289 288 287 286 286 285 285 284 283 283 282 281 281 280 279 277 276 276 276 276 275 275 276 276 277 278 277 277
310 306 302 301 299 297 296 295 293 291 291 290 290 289 288 287 287 286 286 285 285 284 283 282 282 281 280 280 279 278 276 275 275 276 275 275 275 275 277 278 276 276 275
310 305 302 299 298 297 295 293 292 291 290 289 289 288 287 286 286 285 285 284 283 282 281 281 280 279 279 279 278 277 276 275 275 275 274 275 275 276 277 276 275 275 275
308 302 300 298 296 294 292 292 291 290 289 288 288 287 286 285 285 284 283 282 282 281 280 279 278 277 276 276 277 276 275 275 275 274 274 275 275 276 276 275 274 274 275
302 300 298 296 294 292 292 291 290 289 288 287 286 285 285 284 283 283 282 282 281 280 279 278 277 275 275 275 275 275 275 275 275 274 274 274 275 275 275 274 273 274 273
298 297 295 294 293 292 292 290 288 287 286 286 284 283 283 282 282 282 281 281 280 279 277 276 275 274 274 274 274 275 275 276 275 274 274 273 274 273 273 272 273 273 271
293 293 292 291 291 290 288 287 286 286 285 284 283 282 282 282 281 281 280 279 279 278 276 275 275 274 274 274 274 274 275 275 275 274 273 272 272 271 270 271 271 270 270
291 291 290 289 288 287 287 286 285 285 284 283 282 282 281 281 281 280 280 279 278 277 276 275 275 274 274 274 274 274 275 274 273 272 271 270 270 270 270 270 270 269 269
291 290 290 288 286 285 285 285 285 284 283 282 281 281 281 280 280 280 279 278 277 277 276 276 275 275 274 275 275 275 275 274 273 271 270 269 269 269 269 269 269 269 269
288 286 285 285 284 284 284 284 284 284 282 281 280 280 280 280 280 279 279 278 277 277 277 276 276 275 275 275 274 275 274 272 272 270 269 269 268 268 268 268 269 268 268
Wind_Speed
11 27 33 32 28 23 20 18 17 16 21 23 22 20 19 16 15 13 13 14 14 13 16 17 18 18 21 23 25 24 25 27 31 19 21 13 15 5 22 14 20 21 29
15 20 28 33 31 26 22 19 17 18 19 18 17 18 20 16 14 12 13 11 11 12 14 15 16 17 19 22 22 23 21 20 25 18 12 5 8 8 23 22 14 32 26
20 19 24 30 32 29 26 23 20 19 17 18 19 21 20 17 14 13 14 12 10 10 11 13 16 17 18 21 20 20 18 17 18 19 12 4 5 20 7 17 21 19 31
21 20 23 26 34 34 29 26 23 19 19 17 19 22 18 16 13 14 14 13 10 10 10 12 15 13 13 14 17 17 15 14 14 13 13 10 12 4 7 10 30 29 27
24 23 22 30 33 36 33 28 24 21 19 17 18 18 17 16 14 15 13 13 11 9 10 12 15 13 11 11 14 15 14 11 11 12 13 13 13 13 9 13 19 31 29
20 19 27 29 27 35 35 30 27 22 19 18 16 15 16 16 15 13 13 13 10 9 10 12 15 12 11 13 14 13 12 14 14 13 12 11 10 14 11 11 18 21 25
22 21 22 25 29 31 36 34 30 25 20 18 16 15 14 13 13 11 11 12 9 8 9 11 12 11 10 11 12 11 11 13 13 17 16 13 13 15 16 18 19 17 30
23 24 24 29 32 33 33 31 32 29 23 20 17 15 13 14 11 10 11 11 9 8 9 9 9 10 11 11 10 10 9 13 18 20 14 15 15 15 16 16 20 16 11
23 24 22 31 33 33 33 38 35 30 25 21 18 16 13 11 11 12 10 8 7 7 5 5 8 13 11 11 9 7 9 15 20 19 17 15 16 16 15 14 19 14 12
17 18 19 29 31 32 33 38 36 33 27 23 19 16 13 11 11 11 9 7 7 5 3 5 9 13 11 10 7 5 9 18 23 18 17 18 18 18 18 18 18 15 20
18 18 17 27 30 30 35 36 37 35 30 25 21 17 14 12 11 9 8 5 6 4 2 3 7 9 9 7 6 5 12 20 22 19 17 19 21 21 16 20 19 19 16
15 15 17 27 29 30 31 35 35 36 32 26 21 17 14 13 12 10 7 6 5 3 2 1 3 7 7 5 3 7 14 20 21 20 19 20 19 21 22 22 22 15 17
15 14 16 17 27 28 30 31 31 35 32 26 22 19 16 14 13 10 7 6 4 2 3 3 2 6 4 0 2 8 15 19 19 18 18 19 20 22 23 21 21 12 19
21 19 17 16 25 29 30 31 32 37 31 26 23 20 17 14 13 9 6 6 4 4 2 0 4 4 1 2 4 9 14 19 18 17 16 19 21 22 22 23 15 20 22
14 17 18 17 25 27 27 30 34 36 31 28 25 22 17 15 13 10 8 8 6 4 1 5 5 2 3 4 6 9 15 18 18 19 17 19 19 18 20 21 25 26 25
19 19 19 19 24 31 31 34 34 35 33 29 27 23 18 16 14 10 10 10 7 3 5 9 4 8 6 5 7 9 16 18 18 19 21 23 19 21 20 23 23 26 29
20 21 22 22 30 34 37 34 32 34 31 29 28 23 19 17 13 12 12 8 7 5 7 7 8 9 6 6 9 9 16 18 18 20 21 22 22 23 25 27 27 21 25
19 16 15 23 29 32 32 30 30 28 26 25 26 24 21 18 15 14 11 10 7 8 11 10 11 11 8 7 9 9 16 16 17 17 20 22 22 26 26 26 28 25 29
17 20 28 28 29 32 31 32 28 26 23 23 25 25 22 19 17 14 11 10 12 13 12 11 9 4 4 10 11 14 15 14 16 17 20 19 23 24 26 26 23 27 29
18 25 30 33 32 34 34 32 26 25 23 26 26 24 21 19 17 14 14 14 14 13 10 9 6 5 7 9 11 14 13 14 15 18 18 18 22 25 25 27 25 26 26
23 31 33 32 34 35 33 28 27 24 27 28 25 22 19 18 16 16 16 16 13 11 7 6 5 6 7 9 11 13 13 15 16 17 19 20 23 24 25 24 24 27 30
19 25 26 25 27 34 35 28 24 30 30 27 25 23 21 19 17 17 15 12 10 7 5 4 5 6 7 9 12 13 13 16 17 17 17 21 23 22 23 21 24 26 29
20 22 24 27 24 24 27 26 28 31 28 27 26 23 21 18 17 15 14 11 7 5 3 3 3 4 6 10 14 15 14 14 15 14 18 19 19 21 22 20 23 25 25
20 29 29 22 20 26 26 30 31 30 29 27 24 20 18 16 14 12 10 8 7 5 5 4 2 2 4 10 15 17 13 13 15 18 21 21 19 19 20 19 21 24 24
21 21 25 24 24 26 28 31 30 29 27 25 22 17 15 15 14 11 8 8 6 4 4 4 3 4 4 9 15 16 11 14 16 19 21 22 22 19 21 21 21 24 26
22 20 22 25 25 26 28 29 28 26 25 22 19 18 17 14 13 12 10 7 4 3 6 5 6 6 3 9 15 12 11 14 14 17 18 20 19 19 20 22 22 25 26
Wind_Direction
148 153 158 159 157 160 159 159 157 157 158 146 139 132 122 116 103 84 73 64 68 53 41 35 31 28 23 16 11 13 16 10 7 359 341 348 354 185 343 3 4 356 349
159 157 155 156 159 160 162 161 166 163 164 161 151 141 133 125 111 92 89 71 55 49 39 31 35 28 20 21 25 28 15 16 16 356 322 348 342 331 343 359 4 350 349
165 166 165 161 163 164 165 163 158 164 164 160 149 143 133 127 115 99 95 81 72 55 38 39 33 27 25 28 29 25 21 8 15 21 24 345 336 330 315 344 345 347 344
178 173 170 166 164 169 169 168 164 164 162 164 162 155 152 133 115 112 101 102 84 67 53 41 31 34 43 38 32 26 24 15 10 12 13 355 327 334 320 326 324 335 333
180 177 173 166 170 169 168 167 162 160 160 163 165 158 140 131 126 124 110 109 92 70 52 37 31 37 41 45 30 30 22 15 12 10 352 343 326 316 309 312 324 324 327
183 174 168 164 164 167 166 164 160 156 160 158 154 152 146 141 134 129 118 114 99 83 58 38 31 46 54 40 34 31 26 22 10 6 1 349 334 322 323 310 317 317 321
176 174 167 166 162 160 164 162 161 155 156 155 150 148 145 145 139 128 123 122 110 93 63 38 46 54 45 35 38 29 29 23 19 354 339 334 328 320 314 312 314 315 318
179 176 170 165 163 163 162 159 161 157 161 159 152 149 146 142 131 128 128 117 104 92 66 53 50 42 22 20 29 36 28 11 359 351 344 331 326 323 321 317 321 320 316
178 174 169 166 164 165 163 164 162 163 164 161 156 151 149 149 139 134 129 116 101 100 83 60 48 21 17 26 31 33 17 1 355 352 340 338 331 328 317 325 319 305 316
171 170 167 164 165 166 166 167 169 166 163 161 157 155 154 147 143 143 132 118 118 112 105 66 36 29 34 38 25 50 5 357 356 350 347 344 340 329 315 329 316 314 305
172 166 161 161 162 165 167 167 166 164 163 160 158 158 149 148 147 145 133 117 127 121 101 43 38 41 43 35 16 20 356 360 359 357 348 348 346 330 321 325 311 302 302
163 158 159 159 163 165 165 165 164 161 162 160 158 161 153 153 150 144 135 133 130 112 142 48 39 49 39 27 26 4 1 2 359 356 353 348 344 338 335 323 310 309 315
154 153 161 167 168 165 163 162 158 157 161 161 164 158 156 158 157 155 155 151 135 139 180 202 75 54 15 344 16 4 3 1 359 354 350 343 340 334 331 332 318 326 321
168 171 170 170 166 166 159 155 153 159 161 162 163 157 160 164 163 164 157 156 150 164 170 105 104 66 88 121 11 6 2 359 354 351 347 339 337 332 335 327 334 328 321
169 174 172 170 167 162 156 155 155 162 165 162 162 161 164 166 164 160 153 165 163 139 140 137 116 108 137 71 27 3 1 358 354 352 343 339 336 331 330 334 331 324 316
176 184 177 169 168 166 161 157 157 160 163 161 163 160 164 166 163 160 162 156 147 133 125 144 123 147 118 71 31 4 357 353 353 347 345 346 337 337 333 328 324 320 320
186 182 178 174 172 169 164 161 156 156 158 159 160 160 161 162 160 158 154 147 140 143 132 121 125 129 103 55 21 6 354 350 347 345 344 342 341 338 335 329 324 333 324
186 187 173 170 166 162 159 151 148 148 153 154 154 161 159 156 156 152 145 141 140 140 127 113 130 115 83 41 16 10 353 346 341 341 338 340 339 337 332 335 336 332 329
181 173 169 162 157 154 148 140 140 147 152 156 155 161 156 152 151 146 144 147 135 129 120 120 129 108 38 21 11 359 352 341 339 337 336 337 336 333 337 340 335 330 327
159 152 153 149 148 146 142 138 142 154 161 155 158 156 152 151 148 147 145 138 136 132 131 120 93 44 5 15 7 354 348 340 340 337 334 338 339 338 340 340 339 326 331
138 145 150 151 149 142 143 141 152 158 152 155 152 146 147 147 149 143 147 138 145 143 129 104 55 26 22 14 1 353 351 342 338 333 331 336 337 338 338 337 334 332 333
125 135 138 140 144 148 145 148 144 147 153 149 146 140 143 146 147 152 141 147 152 140 111 86 51 34 23 9 355 349 346 342 336 334 341 340 337 338 338 338 338 337 335
115 122 127 128 133 138 136 126 136 154 152 152 144 144 145 147 148 152 150 146 142 131 108 118 53 29 14 5 0 348 340 341 345 350 345 343 342 343 343 342 342 341 338
128 133 126 118 116 125 133 136 149 155 157 149 148 153 155 145 146 158 162 156 153 152 162 178 208 313 345 359 357 342 345 360 357 351 349 351 347 343 339 339 342 342 339
133 135 132 129 131 134 137 151 156 161 155 152 153 153 156 154 149 166 167 160 161 170 194 217 226 244 320 352 346 337 2 357 353 347 354 353 349 341 343 341 340 342 340
122 113 116 120 127 134 143 155 162 167 161 157 157 157 160 155 165 167 156 164 168 223 232 249 263 216 301 331 343 341 3 353 349 352 357 352 347 337 336 338 334 341 337